www.pogodaiklimat.ru

Погода и климат >> Архив погоды >> Россия >> Дагестан >> Кизляр


ПОГОДА в Кизляре

  • Прогноз погоды в Кизляре
  • Монитор погоды в Кизляре

АРХИВ ПОГОДЫ в Кизляре

Время (UTC), дата Ветер
(напр.,м/с)
 
Видим.   Явления Облачность Т
(С)
Тd
(С)
f
(%)
Тe
(С)
Тes
(С)
Комфортность P
(гПа)
Po
(гПа)
Тmin
(С)
Tmax
(С)
R
(мм)
R24
(мм)
S
(см)
12 18.05 В 7-11
{12}
10 км 4/0
[Ac trans]
+26.1 +10.7 38 +27 +29 жарко 1009.5 1010.0
15 18.05 В 2 10 км 4/0
[Ac trans Ci fib]
+23.0 +11.5 48 +25 +26 комфорт 1008.8 1009.3 +27.2
18 18.05 В 2-2
{9}
10 км 6/6 600 м
[Sc Ac trans]
+16.9 +12.8 77 +17 +17 1009.9 1010.4
21 18.05 СВ 2 10 км 6/6 600 м
[Sc Ac trans]
+16.7 +14.6 87 +17 +17 1008.3 1008.8
00 19.05 СВ 1
{13}
4000 м дымка 6/6 600 м
[Sc Ac trans]
+15.3 +14.5 95 +16 +16 1007.9 1008.4
03 19.05 З 1 4000 м дымка 4/0
[Ac trans Ci fib]
+16.4 +15.3 93 +17 +19 1008.1 1008.6 +15.0
06 19.05 СВ 1 10 км 6/0
[Ac trans]
+23.5 +14.7 58 +26 +35 жарко 1008.4 1008.9
09 19.05 СВ 3
{8}
10 км 8/0
[Ac trans]
+27.1 +13.5 43 +29 +37 жарко 1008.5 1009.0
12 19.05 СВ 3 10 км 4/0
[Ac trans]
+26.9 +12.0 40 +28 +35 жарко 1008.9 1009.4
15 19.05 СВ 2 10 км 6/6 600 м
[Sc Ac trans]
+23.8 +12.1 48 +26 +26 жарко 1010.4 1010.9 +27.5
18 19.05 СВ 2 10 км 8/8 600 м
[Sc Ac trans]
+20.5 +13.6 65 +24 +24 комфорт 1011.1 1011.7
21 19.05 штиль 0 10 км 8/8 600 м
[Sc Ac trans]
+16.6 +13.7 83 +16 +16 1012.0 1012.6
00 20.05 штиль 0 10 км 8/8 600 м
[Sc Ac trans]
+16.5 +14.6 89 +16 +16 1012.2 1012.7
03 20.05 штиль 0 4000 м дымка 4/4 600 м
[Sc Ac trans]
+16.5 +15.4 93 +16 +18 1012.3 1012.9 +15.7
06 20.05 СВ 1 10 км 6/0
[Ac trans]
+24.7 +11.0 42 +26 +35 жарко 1013.8 1014.3
09 20.05 СВ 2 10 км 8/8 600 м
[Cu hum Ac trans Ci fib]
+27.2 +10.1 34 +28 +31 жарко 1014.2 1014.7
12 20.05 Ю 4 10 км 9/9 600 м
[Sc Ac trans]
+23.7 +9.3 40 +25 +25 комфорт 1015.2 1015.7
15 20.05 Ю 3 10 км 8/8 600 м
[Sc Ac trans]
+22.6 +9.7 44 +24 +24 комфорт 1015.7 1016.2 +28.0
18 20.05 В 1 10 км 3/0
[Ac trans]
+16.0 +11.8 76 +17 +17 1016.6 1017.2
21 20.05 В 2 10 км 3/0
[Ac trans]
+13.5 +10.0 79 +13 +13 1017.3 1017.8
00 21.05 В 1 4000 м дымка 6/0
[Ac trans]
+13.6 +12.9 96 +14 +14 1018.2 1018.7
03 21.05 В 2 4000 м дымка 6/0
[Ac trans Ci fib]
+15.6 +14.6 94 +15 +16 1019.6 1020.1 +12.1
06 21.05 В 3 10 км 6/6 600 м
[Sc Ac trans Ci fib]
+22.4 +9.8 45 +24 +28 комфорт 1020.1 1020.6
09 21.05 В 4 10 км 6/6 600 м
[Cu hum Ac trans Ci fib]
+24.1 +9.5 40 +25 +30 комфорт 1020.2 1020.7
12 21.05 В 7-11
{13}
10 км 3/0
[Ac trans]
+23.4 +9.6 42 +25 +28 комфорт 1020.5 1021.0
15 21.05 В 4
{12}
10 км ясно +19.8 +6.3 41 +21 +21 комфорт 1020.7 1021.3 +24.6
18 21.05 В 2
{10}
10 км ясно +14.7 +7.9 64 +14 +14 1021.5 1022.0
21 21.05 В 2 10 км ясно +12.9 +8.4 74 +12 +12 1020.8 1021.4
00 22.05 В 2 10 км ясно +12.3 +8.7 79 +11 +11 1019.4 1019.9
03 22.05 В 2 10 км 3/0
[Ac trans]
+15.3 +9.3 67 +15 +17 1018.4 1018.9 +11.9
06 22.05 В 11-16
{16}
10 км 8/0
[Ac trans Ci fib]
+20.5 +7.6 43 +21 +21 комфорт 1016.6 1017.1
09 22.05 В 10-14
{16}
10 км 4/4
[Sc Ac trans Ci fib]
+23.0 +7.3 36 +24 +24 комфорт 1014.9 1015.4
12 22.05 В 11-16
{17}
10 км 6/0
[Ac trans Ci fib]
+21.7 +7.7 40 +23 +23 комфорт 1013.3 1013.9
15 22.05 В 8-12
{17}
10 км 8/8 600 м
[Sc Ac trans]
+19.2 +7.4 46 +19 +19 1014.0 1014.5 +23.2
18 22.05 штиль 0
{12}
10 км 10/10 600 м
[Sc]
+16.8 +19.3 100 +17 +17 1015.7 1016.2
21 22.05 штиль 0 10 км 10/10 600 м
[Sc]
+15.7 +10.3 70 +16 +16 1014.2 1014.8
00 23.05 штиль 0 10 км 6/6 600 м
[Sc Ac trans]
+12.8 +10.3 85 +12 +12 1013.6 1014.1
03 23.05 З 1 10 км ясно +13.8 +10.9 83 +14 +16 1013.3 1013.8 +10.6
06 23.05 СЗ 2 10 км 3/0
[Ac trans]
+21.2 +11.8 55 +23 +33 комфорт 1012.9 1013.4
09 23.05 СЗ 1 10 км 6/6 600 м
[Sc Ac trans Ci fib]
+24.7 +9.8 39 +26 +34 жарко 1011.9 1012.5
12 23.05 ЮВ 2 10 км 4/4 600 м
[Cu hum Ac trans]
+26.0 +12.2 42 +27 +34 жарко 1010.2 1010.7
15 23.05 В 5
{13}
4000 м ливневой дождь, в посл. час гроза 10/10 600 м
[Cb calv]
+15.9 +15.8 99 +15 +15 1010.8 1011.3 +26.3 19
18 23.05 штиль 0 4000 м дымка {гроза, ливн. осадки} 8/8 600 м
[Sc Ac trans]
+16.9 +16.2 96 +17 +17 1011.6 1012.2
21 23.05 З 2
{11}
10 км 8/8 600 м
[Sc Ac trans]
+16.7 +13.6 82 +17 +17 1012.8 1013.4
00 24.05 ЮЗ 2 10 км 8/8 600 м
[Sc Ac trans]
+16.0 +13.7 86 +16 +16 1012.2 1012.8
03 24.05 З 2 4000 м дымка 4/0
[Ac trans]
+15.8 +14.4 91 +16 +17 1012.1 1012.7 +16.0 2
06 24.05 З 3 10 км ясно +22.5 +13.7 57 +26 +36 жарко 1012.0 1012.5
09 24.05 З 2 10 км 6/6 600 м
[Cu hum Ac trans]
+26.4 +9.6 35 +27 +35 жарко 1011.2 1011.7
12 24.05 С 3 10 км 8/8 600 м
[Sc Ac trans]
+27.6 +8.8 31 +28 +30 жарко 1010.8 1011.3
15 24.05 штиль 0 10 км 6/6 600 м
[Sc Ac trans Ci fib]
+27.2 +8.3 30 +27 +28 жарко 1010.5 1011.0 +28.3
18 24.05 В 2 10 км 3/0
[Ac trans]
+18.4 +12.9 70 +19 +19 1011.9 1012.4
21 24.05 В 1 10 км ясно +15.7 +12.6 82 +16 +16 1011.9 1012.5
00 25.05 В 1 10 км 6/0
[Ac trans]
+15.4 +13.1 86 +16 +16 1010.4 1011.0
03 25.05 В 2 10 км 8/0
[Ac trans Ci fib]
+18.8 +14.2 75 +20 +21 1010.1 1010.7 +14.6
06 25.05 В 4 10 км 6/0
[Ac trans Ci fib]
+25.7 +11.2 40 +27 +32 жарко 1009.4 1009.9
09 25.05 В 9-15
{17}
10 км 8/0
[Ac trans Ci fib]
+25.8 +11.8 42 +27 +28 жарко 1008.3 1008.8

 

Местоположение метеостанции Кизляр (Дагестан, Россия): широта 43.83 долгота 46.72 высота над уровнем моря -5 м.

В архиве по умолчанию представлена погода в Кизляре за последнюю неделю. Архивные данные за месяц целиком и за предыдущие месяцы, начиная с января 2011 года, Вы можете получить, выбрав интересующий диапазон дат из раскрывающегося списка и нажав кнопку "Ввод!".


*Определитесь, кто Вы:
робот инопланетянин человек

Внимание! Время в таблицах - всемирное. Для получения местного времени необходимо прибавить поправку, которая равна 3 ч.

Смотрите также архив погоды в соседних городах и на ближайших метеорологических станциях:

Погода в Бабаюрте (Дагестан, Россия) (26 км)
Погода в Шелковской (Чечня, Россия) (44 км)
Погода в Кочубее (Дагестан, Россия) (65 км)
Погода в Хасавюрте (Дагестан, Россия) (65 км)
Погода в Гудермесе (Чечня, Россия) (72 км)
Погода в Терекли-Мектебе (Дагестан, Россия) (75 км)
Погода на Острове Тюлений (Дагестан, Россия) (94 км)
Погода в Грозном (Чечня, Россия) (103 км)
Погода в Махачкале (Дагестан, Россия) (109 км)
Погода в Наурской (Чечня, Россия) (114 км)

Пояснения к столбцам:

Ветер - указаны скорость ветра в м/с - средняя за 10 мин, порывы в срок и между сроками (в фигурных скобках) и направление, откуда дует ветер: С - северный, СВ - северо-восточный, В - восточный, ЮВ - юго-восточный, Ю - южный, ЮЗ - юго-западный, З - западный, СЗ - северо-западный.
Видимость - горизонтальная дальность видимости в метрах или километрах. При видимости от 1 до 10 км при отсутствии осадков обычно наблюдается дымка, при ухудшении видимости до 1 км и менее - туман. В сухую погоду видимость может ухудшаться дымом, пылью или мглою.
Явления - указаны атмосферные явления, наблюдавшиеся в срок или в последний час перед сроком; фигурными скобками обозначены явления, наблюдавшиеся между сроками (за 1-3 часа до срока); квадратными скобками обозначены град или гололедные отложения с указанием их диаметра в мм.
Облачность - указаны через наклонную черту общая и нижняя облачность в баллах и высота нижней границы облаков в метрах; квадратными скобками обозначены формы облаков: Ci - перистые, Cs - перисто-слоистые, Cc - перисто-кучевые, Ac - высококучевые, As - высокослоистые, Sc - слоисто-кучевые, Ns - слоисто-дождевые, Cu - кучевые, Cb - кучево-дождевые. Подробнее классификацию облаков см. в Атласе облаков (PDF).
T - Температура воздуха - температура, измеренная на высоте 2 м над землей.
Td - Температура точки росы - температура, при понижении до которой содержащийся в воздухе водяной пар достигнет насыщения.
f - Относительная влажность воздуха - влажноcть воздуха, измеренная на высоте 2 м над землей.
Te - Эффективная температура - температура, которую ощущает одетый по сезону человек в тени. Характеристика душности погоды. При расчете учитывается влияние влажности воздуха и скорости ветра на теплоощущения человека.
Tes - Эффективная температура на солнце - температура, которую ощущает человек, с поправкой на солнечный нагрев. Характеристика знойности погоды. Зависит от высоты солнца над горизонтом, облачности и скорости ветра. Ночью, в пасмурную погоду, а также при ветре 12 м/с и более поправка равна нулю.
P - Атмосферное давление - приведенное к уровню моря атмосферное давление.
Po - Атмосферное давление - измеренное на уровне метеостанции атмосферное давление.
Tmin - Минимальная температура - минимум температуры воздуха на высоте 2 м над землей.
Tmax - Максимальная температура - максимум температуры воздуха на высоте 2 м над землей.
R - Количество осадков - Количество выпавших осадков за период времени, мм. При наведении курсора мыши на число - период времени, за который выпало указанное количество осадков.
R24 - Количество осадков - Количество выпавших осадков за 24 часа, мм.
S - Снежный покров - Высота снежного покрова, см. При наведении курсора мыши на число - состояние снежного покрова и степень покрытия местности в баллах.